Regional Weather Roundup
Issued by NWS

Home | Current Version | Previous Version | Graphics & Text | Print | Product List | Glossary On
Versions: 1 2 3 4 5 6 7 8 9 10 11 12 13 14 15 16 17 18 19 20 21 22 23 24 25 26 27 28 29 30 31 32 33 34 35 36 37 38 39 40 41 42 43 44 45 46 47 48 49 50
000
ASUS43 KLSX 162107
RWRMO

WEATHER SUMMARY FOR MISSOURI
NATIONAL WEATHER SERVICE SPRINGFIELD MO
400 PM CDT MON OCT 16 2017

NOTE: "FAIR" INDICATES FEW OR NO CLOUDS BELOW 12,000 FEET WITH NO
       SIGNIFICANT WEATHER AND/OR OBSTRUCTIONS TO VISIBILITY.
       CURRENT SKY AND/OR WEATHER CONDITIONS ARE NOT AVAILABLE FOR
       CHILLICOTHE AND FARMINGTON.

MOZ001>031-035>038-043-044-053-054-162200-
...NORTHERN AND WESTERN MISSOURI...

CITY           SKY/WX    TMP DP  RH WIND       PRES   REMARKS
KANSAS CTY INT SUNNY     68  42  38 SW9       30.27F
KANSAS C DTWN  SUNNY     70  43  37 SW12      30.27F
LEE`S SUMMIT   SUNNY     68  40  35 SW10      30.29F
ST JOSEPH      SUNNY     72  38  29 SW13      30.24F
CHILLICOTHE      N/A     69  36  29 S8        30.27F
KIRKSVILLE     SUNNY     67  37  33 SW7       30.28F

$$
MOZ066>068-077>081-088>096-101>105-162200-
...SOUTHWEST MISSOURI...

CITY           SKY/WX    TMP DP  RH WIND       PRES   REMARKS
SPRINGFIELD    SUNNY     68  34  28 NW5       30.31F
JOPLIN         SUNNY     67  38  34 CALM      30.33F
BRANSON        SUNNY     66  32  28 E7        30.33F

$$
MOZ032>034-039>042-045>050-055>058-069>072-162200-
...CENTRAL MISSOURI...

CITY           SKY/WX    TMP DP  RH WIND       PRES   REMARKS
COLUMBIA       SUNNY     67  38  34 W12       30.30F
JEFFERSON CITY SUNNY     68  34  28 VRB6      30.30F
ROLLA          SUNNY     66  36  32 VRB5      30.32F
SEDALIA        SUNNY     68  40  35 SW12      30.31F
WHITEMAN AFB   SUNNY     67  38  34 W8        30.26F
WARRENSBURG    SUNNY     68  36  30 SW6       30.30F
OSAGE BEACH    SUNNY     66  37  34 SW5       30.32F

$$
MOZ051-052-059>065-162200-
...EAST CENTRAL MISSOURI...

CITY           SKY/WX    TMP DP  RH WIND       PRES   REMARKS
ST LOUIS INTL  SUNNY     66  38  35 SW8       30.31F
SPIRIT OF STL  SUNNY     67  38  34 SW6       30.30F
ST CHARLES     MOSUNNY   67  34  29 SW9       30.30F

$$
MOZ072>076-082>087-097>100-106>115-162200-
...SOUTH CENTRAL AND SOUTHEAST MISSOURI...

CITY           SKY/WX    TMP DP  RH WIND       PRES   REMARKS
CAPE GIRARDEAU SUNNY     66  35  31 NE13      30.31F
FARMINGTON     SUNNY     64  36  35 NE7       30.32F
POPLAR BLUFF   SUNNY     68  36  30 VRB7      30.31F
WEST PLAINS    SUNNY     67  30  25 VRB3      30.32F

$$



USA.gov is the U.S. government's official web portal to all federal, state and local government web resources and services.